[[{"header":{"parameterUnit":"m.s-1","parameterCategory":1,"la1":30.2991,"la2":30.254,"lo1":-89.0895,"lo2":-89.0444,"dy":0.0017,"dx":0.0017,"nx":28,"ny":28,"refTime":"2025-11-13T09:00:00:Z","depth":0,"parameterNumber":2,"parameterNumberName":"U-component_of_WINDS"},"data":[0,0,0,0,0,0,0,0,0,0,0,0,0,0,0,0,0,0,0,0,0,0,0,0,0,0,0,0,0,0,0,0,0,0,0,0,0,0,0,0,0,0,0,0,0,0,0,0,0,0,0,0,0,0,0,0,0,0,-0.0751,-0.075,0,-0.0707,-0.0707,-0.0706,-0.0687,-0.0687,-0.0687,-0.0687,-0.0642,-0.0641,-0.064,0,0,0,0,0,0,0,0,0,0,0,0,0,-0.0818,-0.0817,-0.0751,-0.075,-0.075,-0.0707,-0.0707,-0.0706,-0.0687,-0.0687,-0.0687,-0.0687,-0.0643,-0.0641,-0.064,0,0,0,0,0,0,0,0,0,0,0,0,0,-0.0783,-0.0817,-0.0751,-0.0735,-0.0733,-0.0708,-0.0707,-0.0706,-0.0687,-0.0687,-0.0687,-0.0687,-0.0643,-0.0642,-0.064,-0.0626,0,0,-0.0634,-0.0633,0,0,0,0,0,0,0,0,-0.0785,-0.0781,-0.0738,-0.0736,-0.0734,-0.0703,-0.0714,-0.0679,-0.0687,-0.0705,-0.0687,-0.0687,-0.0662,-0.0659,-0.0651,-0.0624,-0.0622,-0.0634,-0.0633,-0.0632,-0.0631,0,0,0,0,0,0,0,-0.0788,-0.0782,-0.0734,-0.0737,-0.0735,-0.073,-0.0726,-0.0707,-0.0684,-0.0703,-0.0702,-0.0697,-0.0661,-0.0653,-0.0649,-0.0622,-0.0634,-0.0632,-0.0631,-0.063,-0.0583,-0.0583,0,0,0,0,0,0,-0.0793,-0.0785,-0.0735,-0.0732,-0.076,-0.0729,-0.0724,-0.0713,-0.0684,-0.0679,-0.0697,-0.0696,-0.0656,-0.0652,-0.0648,-0.0631,-0.0632,-0.063,-0.0629,-0.0583,-0.0583,-0.0583,0,0,0,0,0,0,-0.0794,-0.0788,-0.0737,-0.0758,-0.0751,-0.0728,-0.0716,-0.0712,-0.0703,-0.0679,-0.0675,-0.0692,-0.0656,-0.065,-0.0632,-0.0629,-0.0629,-0.0628,-0.0584,-0.0583,-0.0583,-0.0596,0,0,0,0,0,0,-0.0796,-0.0789,-0.0783,-0.0758,-0.075,-0.0722,-0.0715,-0.0711,-0.07,-0.0698,-0.0673,-0.0669,-0.0655,-0.0635,-0.063,-0.0626,-0.0626,-0.0584,-0.0583,-0.0583,-0.0596,-0.0597,-0.0597,0,0,0,0,0,-0.0799,-0.0788,-0.0783,-0.0777,-0.0743,-0.0721,-0.0717,-0.0701,-0.07,-0.0694,-0.0679,-0.067,-0.063,-0.0633,-0.0628,-0.0623,-0.0584,-0.0584,-0.0583,-0.0596,-0.0597,-0.0597,0,0,0,0,0,0,-0.0813,-0.0785,-0.0779,-0.076,-0.0743,-0.0718,-0.071,-0.0702,-0.0685,-0.0685,-0.0666,-0.0661,-0.0644,-0.0632,-0.0636,-0.0609,-0.0606,-0.0605,-0.0618,-0.0618,-0.0619,-0.0622,-0.0625,0,0,0,0,0,-0.0815,-0.08,-0.0776,-0.0762,-0.0754,-0.0734,-0.0724,-0.0713,-0.0695,-0.0688,-0.0671,-0.0654,-0.0638,-0.0627,-0.0611,-0.0595,-0.0589,-0.0589,-0.059,-0.059,-0.0589,-0.058,-0.058,-0.0582,-0.0582,-0.0582,0,0,-0.0817,-0.0799,-0.0791,-0.0764,-0.075,-0.0735,-0.0728,-0.0712,-0.0701,-0.0685,-0.0667,-0.0655,-0.0634,-0.0617,-0.0609,-0.0607,-0.0587,-0.059,-0.059,-0.0589,-0.058,-0.058,-0.058,-0.0582,-0.0582,-0.0582,0,0,-0.0813,-0.0799,-0.0786,-0.0772,-0.0751,-0.0738,-0.0735,-0.0711,-0.0702,-0.0684,-0.0672,-0.0659,-0.0631,-0.0618,-0.0607,-0.06,-0.0592,-0.0595,-0.0598,-0.059,-0.059,-0.0589,-0.0587,-0.0587,-0.0594,-0.0594,-0.0594,0,-0.0819,-0.0796,-0.078,-0.0765,-0.0754,-0.074,-0.0727,-0.0715,-0.0689,-0.0682,-0.068,-0.0646,-0.0631,-0.0611,-0.061,-0.0601,-0.0598,-0.0598,-0.0591,-0.059,-0.059,-0.0588,-0.0587,-0.0595,-0.0595,-0.0595,-0.0595,0,-0.0804,-0.0788,-0.0781,-0.0757,-0.0745,-0.0732,-0.0714,-0.0704,-0.0695,-0.0682,-0.0664,-0.0646,-0.0627,-0.0621,-0.0612,-0.06,-0.06,-0.0595,-0.0591,-0.0591,-0.0589,-0.0588,-0.0596,-0.0596,-0.0596,-0.0595,0,0,-0.0807,-0.0776,-0.0774,-0.0763,-0.074,-0.0728,-0.0714,-0.0695,-0.0687,-0.067,-0.0659,-0.0636,-0.0632,-0.062,-0.0609,-0.0602,-0.0599,-0.0598,-0.0597,-0.0599,-0.0586,-0.059,-0.0589,-0.0593,-0.0593,-0.0593,-0.0587,0,-0.0801,-0.0775,-0.0761,-0.0742,-0.0728,-0.0715,-0.0703,-0.0688,-0.0676,-0.0663,-0.065,-0.0635,-0.063,-0.0623,-0.0615,-0.0601,-0.0596,-0.0601,-0.0582,-0.0582,-0.0588,-0.0587,-0.0591,-0.0587,-0.0586,-0.0586,-0.0586,0,-0.0789,-0.0774,-0.0753,-0.0732,-0.0726,-0.0715,-0.0698,-0.0685,-0.0668,-0.066,-0.0647,-0.0637,-0.0623,-0.0621,-0.0601,-0.0605,-0.0597,-0.0589,-0.0588,-0.0586,-0.0584,-0.0585,-0.0585,-0.0585,-0.0584,-0.0585,-0.0585,0,-0.0795,-0.0768,-0.0753,-0.0744,-0.072,-0.0713,-0.0702,-0.0685,-0.0675,-0.0659,-0.0653,-0.0636,-0.0627,-0.0614,-0.06,-0.0599,-0.0582,-0.0578,-0.0575,-0.0575,-0.0571,-0.0572,-0.057,-0.0566,-0.0566,-0.0566,-0.0566,0,-0.0789,-0.0777,-0.0755,-0.0745,-0.0732,-0.0716,-0.0704,-0.0692,-0.0677,-0.0666,-0.0653,-0.0643,-0.0624,-0.0612,-0.0601,-0.0586,-0.0582,-0.0576,-0.0573,-0.0577,-0.0578,-0.0571,-0.0571,-0.0566,-0.0566,-0.0566,-0.0566,0,-0.0792,-0.0777,-0.0759,-0.0738,-0.0732,-0.0723,-0.0705,-0.0695,-0.0684,-0.0669,-0.0665,-0.0646,-0.0631,-0.0616,-0.0595,-0.0587,-0.0574,-0.057,-0.0579,-0.0578,-0.0576,-0.0576,-0.0569,-0.0568,-0.0565,-0.0565,-0.0565,0,-0.0789,-0.078,-0.0757,-0.0749,-0.0739,-0.0725,-0.0715,-0.07,-0.069,-0.067,-0.0664,-0.0647,-0.0634,-0.061,-0.0595,-0.0579,-0.0575,-0.0573,-0.0572,-0.0577,-0.0575,-0.0576,-0.0575,-0.0574,-0.0574,-0.0574,-0.0574,0,-0.0786,-0.0779,-0.0765,-0.0749,-0.0737,-0.0724,-0.071,-0.0704,-0.0686,-0.0676,-0.066,-0.0649,-0.0629,-0.0613,-0.0596,-0.0585,-0.0577,-0.0575,-0.0573,-0.0577,-0.0583,-0.058,-0.0581,-0.0575,-0.0575,-0.0575,-0.0575,-0.0575,-0.0786,-0.0777,-0.0761,-0.0746,-0.0734,-0.0722,-0.0712,-0.07,-0.0686,-0.0668,-0.066,-0.0645,-0.0629,-0.0605,-0.0595,-0.0583,-0.0581,-0.0578,-0.0578,-0.0577,-0.0578,-0.0586,-0.058,-0.058,-0.058,-0.0579,-0.0579,0,-0.0782,-0.0771,-0.0758,-0.0739,-0.0728,-0.0721,-0.0706,-0.0697,-0.0684,-0.067,-0.0657,-0.0639,-0.0625,-0.0609,-0.0593,-0.0587,-0.0583,-0.0583,-0.0583,-0.0581,-0.0581,-0.0584,-0.0587,-0.0587,-0.0587,-0.0587,-0.0587,-0.0587,-0.0779,-0.0764,-0.0756,-0.0736,-0.0725,-0.071,-0.0702,-0.0691,-0.068,-0.0661,-0.0649,-0.0639,-0.0624,-0.0608,-0.0594,-0.059,-0.0585,-0.0587,-0.0581,-0.0582,-0.0581,-0.0581,-0.0583,-0.0586,-0.0586,-0.0582,-0.0582,-0.0582]},{"header":{"parameterUnit":"m.s-1","parameterCategory":1,"la1":30.2991,"la2":30.254,"lo1":-89.0895,"lo2":-89.0444,"dy":0.0017,"dx":0.0017,"nx":28,"ny":28,"refTime":"2025-11-13T09:00:00:Z","depth":0,"parameterNumber":3,"parameterNumberName":"V-component_of_WINDS"},"data":[0,0,0,0,0,0,0,0,0,0,0,0,0,0,0,0,0,0,0,0,0,0,0,0,0,0,0,0,0,0,0,0,0,0,0,0,0,0,0,0,0,0,0,0,0,0,0,0,0,0,0,0,0,0,0,0,0,0,1.5598,1.5598,0,1.5538,1.5537,1.5537,1.5487,1.5487,1.5486,1.5486,1.5422,1.542,1.5419,0,0,0,0,0,0,0,0,0,0,0,0,0,1.5669,1.5668,1.5598,1.5598,1.5597,1.5538,1.5537,1.5536,1.5487,1.5487,1.5486,1.5486,1.5422,1.542,1.5419,0,0,0,0,0,0,0,0,0,0,0,0,0,1.5626,1.5667,1.5599,1.5566,1.5562,1.5538,1.5537,1.5536,1.5488,1.5487,1.5486,1.5485,1.5422,1.5421,1.5419,1.5422,0,0,1.5413,1.5412,0,0,0,0,0,0,0,0,1.5629,1.5624,1.5571,1.5568,1.5564,1.5519,1.5538,1.5498,1.5488,1.5516,1.5486,1.5485,1.5455,1.545,1.544,1.5419,1.5417,1.5413,1.5412,1.5411,1.541,0,0,0,0,0,0,0,1.5632,1.5626,1.5574,1.557,1.5566,1.5553,1.5546,1.5531,1.549,1.5513,1.551,1.5503,1.5452,1.5442,1.5438,1.5416,1.5413,1.5411,1.541,1.5409,1.5394,1.5395,0,0,0,0,0,0,1.564,1.5629,1.5576,1.5573,1.5595,1.5552,1.5544,1.5534,1.549,1.5483,1.5504,1.5501,1.5446,1.5441,1.5436,1.5437,1.5411,1.5409,1.5408,1.5393,1.5394,1.5395,0,0,0,0,0,0,1.5642,1.5636,1.5579,1.56,1.5591,1.5552,1.5541,1.5534,1.5523,1.5483,1.5475,1.5501,1.5445,1.5439,1.5426,1.5434,1.5408,1.5407,1.5392,1.5393,1.5394,1.5439,0,0,0,0,0,0,1.5644,1.5637,1.5639,1.56,1.5591,1.5571,1.5541,1.5533,1.5521,1.5516,1.5478,1.5471,1.5444,1.5429,1.5424,1.5431,1.5405,1.5391,1.5393,1.5394,1.5437,1.5442,1.5446,0,0,0,0,0,1.5647,1.5653,1.5639,1.5633,1.5592,1.5572,1.5566,1.5535,1.5521,1.5522,1.5496,1.5473,1.5434,1.5428,1.5422,1.5429,1.5391,1.5392,1.5394,1.5435,1.5441,1.5446,0,0,0,0,0,0,1.5693,1.5647,1.5631,1.5625,1.5603,1.5563,1.5563,1.5542,1.5522,1.5519,1.5481,1.5472,1.5464,1.5445,1.5439,1.5429,1.5409,1.541,1.5442,1.5448,1.5452,1.5457,1.5404,0,0,0,0,0,1.5702,1.569,1.5651,1.565,1.5639,1.5604,1.5594,1.5572,1.5546,1.5536,1.5509,1.5485,1.5467,1.5456,1.5438,1.5434,1.5425,1.5435,1.544,1.5444,1.5444,1.544,1.5445,1.54,1.54,1.54,0,0,1.5722,1.5695,1.569,1.5658,1.5638,1.5626,1.5596,1.5584,1.5574,1.5534,1.5521,1.55,1.547,1.5462,1.5457,1.5446,1.5455,1.5446,1.5449,1.5448,1.5443,1.5447,1.5451,1.5401,1.5401,1.5401,0,0,1.5751,1.573,1.5726,1.5707,1.5677,1.5653,1.5653,1.5616,1.5601,1.5588,1.5557,1.5545,1.5515,1.5495,1.5481,1.5502,1.5479,1.5497,1.5521,1.5517,1.5521,1.5524,1.5531,1.5534,1.5498,1.5498,1.5498,0,1.5778,1.576,1.5727,1.5718,1.5704,1.5668,1.5664,1.5646,1.5611,1.5603,1.5591,1.5553,1.553,1.5517,1.5522,1.5512,1.5509,1.5501,1.5523,1.5526,1.5528,1.5534,1.5537,1.5501,1.55,1.55,1.55,0,1.5795,1.5782,1.5783,1.5751,1.5738,1.5731,1.5697,1.5687,1.5666,1.5643,1.5629,1.5601,1.5576,1.5571,1.555,1.5555,1.5548,1.553,1.5509,1.5535,1.554,1.5543,1.5504,1.5503,1.5502,1.5502,0,0,1.5851,1.5802,1.5803,1.5788,1.5752,1.5741,1.5733,1.5709,1.5701,1.5678,1.5669,1.5645,1.5628,1.5612,1.5589,1.5586,1.5604,1.5568,1.5566,1.5575,1.5607,1.5621,1.5624,1.5589,1.5589,1.559,1.5609,0,1.5874,1.5858,1.5828,1.582,1.5808,1.5773,1.5765,1.5742,1.572,1.5706,1.5681,1.5665,1.5644,1.5634,1.5629,1.5603,1.561,1.5601,1.558,1.5579,1.5588,1.5627,1.5642,1.5661,1.5611,1.5611,1.5612,0,1.5899,1.588,1.5871,1.5836,1.583,1.5824,1.5799,1.5786,1.5759,1.5743,1.5726,1.57,1.5688,1.5669,1.5651,1.5646,1.5635,1.5621,1.5621,1.5617,1.5597,1.5625,1.5667,1.567,1.5615,1.5614,1.5614,0,1.5941,1.5912,1.5903,1.5892,1.5851,1.5847,1.583,1.5802,1.5789,1.5768,1.5759,1.5736,1.5724,1.5706,1.5675,1.5664,1.566,1.5639,1.5646,1.5647,1.5647,1.5648,1.5688,1.5641,1.5641,1.5641,1.564,0,1.5971,1.5967,1.5922,1.5916,1.591,1.5876,1.5871,1.585,1.5825,1.5815,1.5783,1.5773,1.5732,1.5717,1.5693,1.5682,1.5676,1.5662,1.5656,1.5665,1.5667,1.5658,1.5655,1.5641,1.5641,1.5641,1.5641,0,1.6017,1.5986,1.5974,1.5937,1.5927,1.5925,1.5892,1.5885,1.5861,1.5848,1.5842,1.5805,1.5786,1.5753,1.5724,1.5708,1.5701,1.569,1.5711,1.5707,1.5716,1.5716,1.5752,1.5755,1.5706,1.5707,1.5707,0,1.6037,1.6033,1.5996,1.5987,1.5971,1.5956,1.5944,1.5909,1.5897,1.5866,1.5862,1.5841,1.5822,1.5793,1.5763,1.574,1.5728,1.5743,1.5725,1.5734,1.5728,1.5729,1.5728,1.5747,1.5748,1.5748,1.5749,0,1.6077,1.6062,1.6046,1.6024,1.601,1.5991,1.597,1.5965,1.5925,1.5913,1.5894,1.5879,1.585,1.5829,1.5802,1.5783,1.5759,1.5755,1.5755,1.5765,1.5777,1.577,1.5722,1.5754,1.5753,1.5753,1.5753,1.5752,1.6111,1.6106,1.6078,1.6061,1.6042,1.6023,1.6015,1.599,1.5974,1.5948,1.5929,1.5911,1.5882,1.5844,1.5827,1.5811,1.58,1.5801,1.5801,1.5802,1.5806,1.5779,1.5806,1.5806,1.5806,1.5806,1.5805,0,1.6149,1.6129,1.6114,1.6086,1.6072,1.6052,1.6028,1.6017,1.6002,1.5978,1.5961,1.5938,1.5917,1.5886,1.5862,1.5856,1.5844,1.5851,1.5851,1.5847,1.5817,1.5819,1.5861,1.5861,1.5861,1.5861,1.5861,1.5861,1.6167,1.6157,1.6139,1.612,1.61,1.6083,1.6071,1.6053,1.6034,1.6011,1.5994,1.5973,1.5946,1.592,1.59,1.5891,1.5884,1.5894,1.5882,1.5854,1.5849,1.5844,1.5846,1.5893,1.5893,1.5913,1.5913,1.5913]}]]